カタログに戻る

STARLINK-3597

運用中通信VLEO
NORAD 51898·PAYLOAD·🇺🇸 United States

打ち上げ Mar 3, 2022 から Cape Canaveral Space Force Station

Loading…

次のパス (今後24時間)

TLE

最新Source: CelesTrak SupGP

元期: Sep 15, 2026, 01:53 UTC

1 51898C 22022AY  26258.07895833 -.00060569  00000+0 -17883-2 0  2589
2 51898  53.1570 212.7283 0001177  92.3236 185.6184 15.34442554    11

AllMySatでSTARLINK-3597をリアルタイム追跡

Download on the App Store